TITAN 3C TRANSTAGE DEB, 27793

Orbit data source: Space-Track

TITAN 3C TRANSTAGE DEB, 27793 is space debris in HEO originally from a launch on Tue, 21 Dec 1965 UTC launched from the Air Force Eastern Test Range (AFETR). Debris objects in space refer to the collection of defunct objects orbiting the Earth. Examples of debris include non-operational satellites, rocket bodies, and fragments generated from explosions, collisions, or faulty payload assembly.

Loading next visibility...
Identifier
27793, 1965-108BH
Orbit
HEO
Country
Flag of USUS
Related business
Manufacturer
Unknown
Mission
Spacecraft
Bus & Motor
Unknown
Mass
Unknown
Launch date (UTC)
1965-12-21 (60 years ago)
Launch vehicle
Unknown
Launch site
Air Force Eastern Test Range (AFETR)
Object type
Payload
Rocket body
Debris
Shape & HBR
Unknown shape, 0.1 m
Radar Cross Section
Small (<0.1 m²)

Expand to show TLE details & history
Last TLE update: 3 weeks ago

TLE from 3 weeks ago
0 TITAN 3C TRANSTAGE DEB
1 27793U 65108BH  25279.21999255  .00000746  00000-0  45880-2 0  9999
2 27793  26.2207 182.8066 6499562 210.6622  85.8800  3.12060261128461
Epoch: 2025-10-06T05:16Z
TLE epoch observation values (Epoch: 2025-10-06T05:16:47.356Z)
Latitude
0.00019°
Longitude
88.53609°
Altitude
19,562.714 km
Speed
3.253 km/s
True Right ascension
12h 11m 26s
True Declination
0° 00' 01"
Sunlit
Object was in daylight at epoch
Visualization orbit readout
Latitude
Unknown
Longitude
Unknown
Altitude
Unknown
Speed
Unknown
Apparent Right ascension
Unknown
Apparent Declination
Unknown
Sunlit
N/A
Visualization observer readout
Local Sidereal Time
01:21:48
Azimuth
Unknown
Elevation
Unknown
Doppler factor
Unknown
Orbital elements
Apogee altitude
26,265.182 km
Perigee altitude
547.254 km
Semi-major axis
19,784.355 km
Eccentricity
0.64996
Inclination
26.2207°
RAAN
182.8066°
Arg. of periapsis
210.6622°
True anomaly
149.3983°
Mean anomaly
85.88°
Eccentric anomaly
118.58159°
Mean motion
0.77994 °/min
Orbital period
461.57 mins
BSTAR
0.004588
Loading maneuver chart data...
Computing Atmospheric mass density...

Documentation

Showing up to 5 results
|